Latest Weather Observations for Bankstown

IDN60901

Issued at 8:01 am EST Saturday 30 May 2015 (issued every 10 minutes, with the page automatically refreshed every 10 minutes)

About weather observations | Map of Sydney area stations | Latest observations for Sydney area | Other Formats
Station Details ID: 066137 Name: BANKSTOWN AIRPORT AWS Lat: -33.92 Lon: 150.99 Height: 6.5 m
Data from the previous 72 hours. | See also: Recent months at Bankstown
Date/Time
EST
Tmp

°C
App
Tmp
°C
Dew
Point
°C
Rel
Hum
%
Delta-T

°C
Wind Press
QNH
hPa
Press
MSL
hPa
Rain
since
9 am
mm
Dir
 
Spd
km/h
Gust
km/h
Spd
kts
Gust
kts
30/08:00am 9.4 7.7 7.5 88 0.9 NNW 6 7 3 4 1022.2 1022.2 0.0
30/07:30am 9.2 7.2 7.3 88 0.9 NNW 7 9 4 5 1022.0 1022.0 0.0
30/07:00am 8.5 6.6 6.6 88 0.9 NW 6 9 3 5 1022.2 1022.2 0.0
30/06:30am 8.3 6.3 6.3 87 0.9 NW 6 7 3 4 1021.8 1021.8 0.0
30/05:30am 8.2 6.0 6.0 86 1.0 NW 7 7 4 4 1021.8 1021.8 0.0
30/05:00am 8.8 6.8 6.4 85 1.1 NW 6 7 3 4 1021.5 1021.5 0.0
30/04:30am 8.9 8.1 6.5 85 1.1 CALM 0 0 0 0 1021.6 1021.6 0.0
30/04:00am 9.2 8.5 7.0 86 1.0 CALM 0 0 0 0 1021.7 1021.7 0.0
30/03:30am 9.0 8.3 7.0 87 0.9 CALM 0 0 0 0 1021.9 1021.9 0.0
30/03:00am 8.5 7.7 6.5 87 0.9 CALM 0 0 0 0 1022.2 1022.2 0.0
30/02:30am 8.8 8.0 6.6 86 1.0 CALM 0 0 0 0 1022.3 1022.3 0.0
30/02:00am 9.4 7.6 7.2 86 1.0 NW 6 7 3 4 1022.7 1022.7 0.0
30/01:30am 9.5 8.8 7.1 85 1.1 CALM 0 0 0 0 1022.7 1022.7 0.0
30/01:00am 9.2 7.0 6.3 82 1.3 W 7 9 4 5 1022.4 1022.4 0.0
30/12:30am 10.4 7.8 7.8 84 1.3 NW 11 15 6 8 1022.4 1022.4 0.0
30/12:00am 10.3 9.7 7.5 83 1.3 CALM 0 0 0 0 1022.7 1022.7 0.0
 
Date/Time
EST
Tmp

°C
App
Tmp
°C
Dew
Point
°C
Rel
Hum
%
Delta-T

°C
Wind Press
QNH
hPa
Press
MSL
hPa
Rain
since
9 am
mm
Dir
 
Spd
km/h
Gust
km/h
Spd
kts
Gust
kts
29/11:30pm 10.7 9.2 7.0 78 1.8 ESE 4 7 2 4 1022.7 1022.7 0.0
29/11:00pm 12.1 11.4 8.4 78 1.8 WNW 2 6 1 3 1022.8 1022.8 0.0
29/10:30pm 12.1 10.7 9.5 84 1.3 NW 7 9 4 5 1022.8 1022.8 0.0
29/10:00pm 11.5 10.8 8.4 81 1.5 WNW 2 7 1 4 1022.6 1022.6 0.0
29/09:30pm 11.9 10.4 8.6 80 1.6 W 6 7 3 4 1022.7 1022.7 0.0
29/09:00pm 13.0 12.0 8.9 76 2.1 WSW 4 9 2 5 1022.5 1022.5 0.0
29/08:30pm 14.2 12.9 9.8 75 2.3 NW 7 17 4 9 1022.6 1022.6 0.0
29/08:00pm 12.3 10.8 9.0 80 1.6 W 7 9 4 5 1022.3 1022.3 0.0
29/07:30pm 13.0 11.8 9.4 79 1.8 S 6 9 3 5 1022.2 1022.2 0.0
29/07:00pm 12.9 12.4 9.2 78 1.9 S 2 6 1 3 1022.0 1022.0 0.0
29/06:30pm 13.7 13.0 10.1 79 1.9 W 4 7 2 4 1021.7 1021.7 0.0
29/06:00pm 14.0 13.7 8.8 71 2.6 CALM 0 0 0 0 1021.5 1021.5 0.0
29/05:30pm 16.2 15.5 10.1 67 3.2 NNW 4 7 2 4 1021.0 1021.0 0.0
29/05:00pm 17.1 15.3 9.5 61 4.0 NW 9 11 5 6 1020.8 1020.8 0.0
29/04:30pm 18.5 16.2 9.0 54 5.0 NW 11 15 6 8 1020.9 1020.9 0.0
29/04:00pm 19.2 17.7 10.5 57 4.7 NW 9 13 5 7 1020.7 1020.7 0.0
29/03:30pm 19.4 18.1 11.4 60 4.4 WNW 9 13 5 7 1020.5 1020.5 0.0
29/03:00pm 19.0 17.9 11.8 63 4.0 NW 9 13 5 7 1020.3 1020.3 0.0
29/02:30pm 18.9 17.9 12.2 65 3.7 NW 9 13 5 7 1020.0 1020.0 0.0
29/02:00pm 18.8 18.4 12.5 67 3.5 W 6 9 3 5 1020.0 1020.0 0.0
29/01:30pm 18.5 18.2 12.7 69 3.2 WNW 6 9 3 5 1019.8 1019.8 0.0
29/01:00pm 18.1 17.6 12.5 70 3.1 WNW 7 11 4 6 1020.1 1020.1 0.0
29/12:30pm 18.1 17.4 12.1 68 3.3 WSW 7 9 4 5 1020.2 1020.2 0.0
29/12:00pm 17.9 17.2 11.9 68 3.3 WSW 7 11 4 6 1020.3 1020.3 0.0
29/11:30am 17.7 17.2 11.9 69 3.2 WSW 6 9 3 5 1020.7 1020.7 0.0
29/11:00am 17.2 18.0 12.7 75 2.5 CALM 0 0 0 0 1020.9 1020.9 0.0
29/10:30am 16.9 17.6 12.2 74 2.6 CALM 0 0 0 0 1020.8 1020.8 0.0
29/10:00am 16.5 16.1 12.5 77 2.2 NW 6 7 3 4 1021.0 1021.0 0.0
29/09:30am 15.8 15.4 12.5 81 1.8 WSW 6 6 3 3 1021.0 1021.0 0.0
29/09:00am 15.0 15.7 12.3 84 1.5 CALM 0 6 0 3 1020.8 1020.8 0.0
29/08:30am 14.7 15.4 12.2 85 1.4 CALM 0 0 0 0 1020.7 1020.7 0.0
29/08:00am 14.3 14.2 12.0 86 1.2 NNE 4 6 2 3 1020.2 1020.2 0.0
29/07:30am 13.7 14.1 11.4 86 1.2 CALM 0 0 0 0 1020.0 1020.0 0.0
29/07:00am 13.4 13.8 11.1 86 1.2 CALM 0 0 0 0 1019.8 1019.8 0.0
29/06:30am 13.4 12.6 10.9 85 1.3 NW 6 7 3 4 1019.4 1019.4 0.0
29/06:00am 13.5 13.5 11.0 85 1.3 SSE 2 7 1 4 1019.0 1019.0 0.0
29/05:30am 14.1 14.5 11.4 84 1.4 CALM 0 6 0 3 1018.6 1018.6 0.0
29/05:00am 14.6 14.2 11.2 80 1.8 SSW 4 7 2 4 1018.6 1018.6 0.0
29/04:30am 14.6 13.4 10.4 76 2.2 S 7 11 4 6 1018.3 1018.3 0.0
29/04:00am 16.3 14.5 11.0 71 2.8 NNW 11 15 6 8 1017.9 1017.9 0.0
29/03:30am 16.6 14.9 11.3 71 2.9 NNW 11 17 6 9 1017.8 1017.8 0.0
29/03:00am 16.1 14.4 11.3 73 2.6 N 11 13 6 7 1018.1 1018.1 0.0
29/02:30am 15.1 14.1 11.1 77 2.1 NNW 7 11 4 6 1018.5 1018.5 0.0
29/02:00am 15.3 14.5 12.8 85 1.4 NNW 9 15 5 8 1018.9 1018.9 0.0
29/01:30am 13.6 14.0 11.3 86 1.2 CALM 0 0 0 0 1019.1 1019.1 0.0
29/01:00am 13.7 14.1 11.2 85 1.3 CALM 0 0 0 0 1019.5 1019.5 0.0
29/12:30am 13.7 14.0 10.9 83 1.5 CALM 0 0 0 0 1019.6 1019.6 0.0
29/12:00am 13.5 13.7 10.7 83 1.5 CALM 0 0 0 0 1020.0 1020.0 0.0
 
Date/Time
EST
Tmp

°C
App
Tmp
°C
Dew
Point
°C
Rel
Hum
%
Delta-T

°C
Wind Press
QNH
hPa
Press
MSL
hPa
Rain
since
9 am
mm
Dir
 
Spd
km/h
Gust
km/h
Spd
kts
Gust
kts
28/11:30pm 13.6 13.8 10.6 82 1.6 CALM 0 0 0 0 1020.0 1020.0 0.0
28/11:00pm 13.5 13.7 10.5 82 1.6 CALM 0 0 0 0 1020.2 1020.2 0.0
28/10:30pm 13.5 12.4 10.1 80 1.8 S 6 11 3 6 1020.4 1020.4 0.0
28/10:00pm 15.7 15.0 11.5 76 2.3 NNW 6 11 3 6 1020.4 1020.4 0.0
28/09:30pm 15.6 14.3 11.2 75 2.4 NNW 9 13 5 7 1020.5 1020.5 0.0
28/09:00pm 15.9 15.2 11.3 74 2.5 NNW 6 7 3 4 1020.4 1020.4 0.0
28/08:30pm 15.0 15.3 11.0 77 2.1 CALM 0 7 0 4 1020.8 1020.8 0.0
28/08:00pm 14.6 14.8 10.4 76 2.2 CALM 0 0 0 0 1020.7 1020.7 0.0
28/07:30pm 15.0 15.3 10.8 76 2.2 CALM 0 0 0 0 1020.8 1020.8 0.0
28/07:00pm 14.9 15.0 10.1 73 2.5 CALM 0 0 0 0 1020.4 1020.4 0.0
28/06:30pm 15.6 14.6 10.4 71 2.7 NNW 6 7 3 4 1020.5 1020.5 0.0
28/06:00pm 16.0 15.0 10.3 69 3.0 NNW 6 9 3 5 1020.5 1020.5 0.0
28/05:30pm 18.3 17.6 11.4 64 3.8 NNE 6 9 3 5 1020.3 1020.3 0.0
28/05:00pm 17.5 16.1 9.7 60 4.1 WNW 7 9 4 5 1020.4 1020.4 0.0
28/04:30pm 19.8 18.5 10.0 53 5.3 NW 7 9 4 5 1020.1 1020.1 0.0
28/04:00pm 20.9 19.2 9.8 49 5.9 NNW 9 13 5 7 1019.9 1019.9 0.0
28/03:30pm 21.3 19.0 8.9 45 6.6 NNW 11 15 6 8 1019.9 1019.9 0.0
28/03:00pm 20.9 19.0 8.9 46 6.3 NNW 9 13 5 7 1020.1 1020.1 0.0
28/02:30pm 21.6 19.9 8.5 43 6.9 WNW 7 13 4 7 1020.1 1020.1 0.0
28/02:00pm 20.1 18.3 7.8 45 6.3 WNW 7 11 4 6 1020.1 1020.1 0.0
28/01:30pm 20.1 17.6 8.1 46 6.2 NW 11 13 6 7 1020.4 1020.4 0.0
28/01:00pm 19.6 16.9 7.4 45 6.2 NNW 11 17 6 9 1020.7 1020.7 0.0
28/12:30pm 20.0 18.3 7.4 44 6.4 NNW 6 11 3 6 1021.0 1021.0 0.0
28/12:00pm 19.4 16.7 7.5 46 6.0 NW 11 13 6 7 1021.7 1021.7 0.0
28/11:30am 18.7 16.1 7.8 49 5.6 NNW 11 13 6 7 1022.0 1022.0 0.0
28/11:00am 17.9 15.9 7.3 50 5.3 N 7 13 4 7 1022.7 1022.7 0.0
28/10:30am 17.1 15.4 8.5 57 4.4 W 7 11 4 6 1023.4 1023.4 0.0
28/10:00am 15.7 13.8 8.9 64 3.5 NW 9 13 5 7 1023.8 1023.8 0.0
28/09:30am 14.5 12.9 8.9 69 2.8 NW 7 9 4 5 1024.0 1024.0 0.0
28/09:00am 12.8 11.0 8.1 73 2.3 NW 7 9 4 5 1023.8 1023.8 0.0
28/08:30am 12.0 10.3 9.7 86 1.2 NW 9 11 5 6 1023.9 1023.9 0.0
28/08:00am 10.4 9.0 9.0 91 0.7 NW 6 9 3 5 1023.7 1023.7 0.0
28/07:30am 7.9 7.1 6.4 90 0.7 CALM 0 0 0 0 1023.4 1023.4 0.0
28/07:00am 7.9 7.1 6.4 90 0.7 CALM 0 0 0 0 1023.4 1023.4 0.0
28/06:48am 8.1 7.3 6.6 90 0.7 CALM 0 0 0 0 1023.5 1023.5 0.0
28/06:34am 7.9 6.7 6.4 90 0.7 N 2 6 1 3 1023.5 1023.5 0.0
28/06:30am 7.9 7.0 6.2 89 0.8 CALM 0 4 0 2 1023.4 1023.4 0.0
28/06:00am 8.7 8.1 7.2 90 0.7 CALM 0 0 0 0 1022.9 1022.9 0.0
28/05:30am 8.3 7.6 6.8 90 0.7 CALM 0 0 0 0 1022.4 1022.4 0.0
28/05:00am 8.6 7.9 7.1 90 0.7 CALM 0 0 0 0 1022.4 1022.4 0.0
28/04:30am 8.4 7.7 6.9 90 0.7 CALM 0 0 0 0 1022.3 1022.3 0.0
28/04:00am 7.7 6.8 6.0 89 0.8 CALM 0 0 0 0 1022.5 1022.5 0.0
28/03:30am 8.0 7.2 6.3 89 0.8 CALM 0 0 0 0 1022.5 1022.5 0.0
28/03:00am 7.9 7.0 6.2 89 0.8 CALM 0 0 0 0 1022.5 1022.5 0.0
28/02:30am 8.3 7.5 6.6 89 0.8 CALM 0 0 0 0 1022.7 1022.7 0.0
28/02:00am 8.5 7.7 6.6 88 0.9 CALM 0 0 0 0 1022.8 1022.8 0.0
28/01:30am 8.6 7.8 6.7 88 0.9 CALM 0 0 0 0 1022.9 1022.9 0.0
28/01:20am 8.2 7.4 6.3 88 0.9 CALM 0 0 0 0 1023.1 1023.1 0.0
28/01:00am 8.5 7.7 6.5 87 0.9 CALM 0 0 0 0 1023.0 1023.0 0.0
28/12:48am 8.4 7.6 6.4 87 0.9 CALM 0 0 0 0 1023.0 1023.0 0.0
28/12:30am 8.5 7.7 6.3 86 1.0 CALM 0 6 0 3 1023.0 1023.0 0.0
28/12:00am 9.2 8.1 7.0 86 1.0 N 2 6 1 3 1023.1 1023.1 0.0
 
Date/Time
EST
Tmp

°C
App
Tmp
°C
Dew
Point
°C
Rel
Hum
%
Delta-T

°C
Wind Press
QNH
hPa
Press
MSL
hPa
Rain
since
9 am
mm
Dir
 
Spd
km/h
Gust
km/h
Spd
kts
Gust
kts
27/11:30pm 9.7 9.0 7.1 84 1.2 CALM 0 0 0 0 1023.2 1023.2 0.0
27/11:00pm 10.4 8.2 8.0 85 1.2 N 9 11 5 6 1023.2 1023.2 0.0
27/10:30pm 10.0 9.4 7.3 83 1.3 CALM 0 0 0 0 1022.9 1022.9 0.0
27/10:00pm 10.3 9.7 7.4 82 1.4 CALM 0 0 0 0 1022.9 1022.9 0.0
27/09:30pm 10.5 9.8 7.0 79 1.7 CALM 0 0 0 0 1023.2 1023.2 0.0
27/09:00pm 10.8 10.2 7.5 80 1.6 CALM 0 0 0 0 1023.1 1023.1 0.0
27/08:30pm 11.0 10.3 7.1 77 1.9 CALM 0 0 0 0 1023.2 1023.2 0.0
27/08:00pm 11.6 11.1 7.7 77 1.9 CALM 0 6 0 3 1023.0 1023.0 0.0
27/07:30pm 11.8 10.0 7.3 74 2.2 NNW 6 7 3 4 1022.7 1022.7 0.0
27/07:00pm 13.5 13.0 7.7 68 2.8 CALM 0 0 0 0 1022.6 1022.6 0.0
27/06:30pm 12.9 12.3 7.4 69 2.7 CALM 0 0 0 0 1022.2 1022.2 0.0
27/06:00pm 14.0 13.3 7.1 63 3.3 CALM 0 0 0 0 1022.0 1022.0 0.0
27/05:30pm 15.6 13.6 6.1 53 4.6 N 6 7 3 4 1021.7 1021.7 0.0
27/05:00pm 16.7 14.2 6.5 51 5.0 NNW 9 11 5 6 1021.6 1021.6 0.0
27/04:30pm 17.5 15.1 7.0 50 5.2 NNW 9 19 5 10 1021.4 1021.4 0.0
27/04:00pm 19.0 16.2 7.1 46 6.0 NNW 11 13 6 7 1021.4 1021.4 0.0
27/03:30pm 19.1 16.2 6.6 44 6.2 NW 11 13 6 7 1021.5 1021.5 0.0
27/03:00pm 20.3 17.5 5.1 37 7.4 WNW 9 13 5 7 1021.6 1021.6 0.0
27/02:30pm 20.5 17.1 5.7 38 7.3 W 13 17 7 9 1021.7 1021.7 0.0
27/02:00pm 20.0 16.9 3.7 34 7.7 NW 9 13 5 7 1021.7 1021.7 0.0
27/01:30pm 19.5 15.6 3.2 34 7.6 NNW 13 19 7 10 1022.0 1022.0 0.0
27/01:00pm 19.8 16.6 5.1 38 7.1 NW 11 17 6 9 1022.3 1022.3 0.0
27/12:30pm 18.8 15.9 4.9 40 6.7 NNW 9 13 5 7 1022.8 1022.8 0.0
27/12:00pm 17.9 15.6 5.5 44 6.0 NW 7 13 4 7 1023.5 1023.5 0.0
27/11:30am 16.7 14.0 5.6 48 5.3 NW 9 13 5 7 1024.1 1024.1 0.0
27/11:00am 15.7 12.5 5.3 50 4.9 WNW 11 15 6 8 1024.8 1024.8 0.0
27/10:30am 15.6 13.1 6.6 55 4.4 NW 9 13 5 7 1025.1 1025.1 0.0
27/10:00am 15.0 12.5 6.6 57 4.1 NW 9 13 5 7 1025.5 1025.5 0.0
27/09:30am 13.5 10.9 6.1 61 3.5 W 9 13 5 7 1025.6 1025.6 0.0
27/09:00am 12.8 10.9 6.8 67 2.9 W 6 9 3 5 1025.4 1025.4 0.0
27/08:30am 11.7 9.2 6.6 71 2.4 WSW 9 13 5 7 1025.8 1025.8 0.0

Latest Capital City Observations: Canberra | Sydney | Melbourne | Brisbane | Adelaide | Perth | Hobart | Darwin

Other Formats:

Comma delimited format used in spreadsheet applications
http://www.bom.gov.au/fwo/IDN60901/IDN60901.94765.axf

JavaScript Object Notation format (JSON) in row-major order
http://www.bom.gov.au/fwo/IDN60901/IDN60901.94765.json